Flag for India Weather past 2 weeks in Muktsar, Punjab, India

Now
97 °F

Passing clouds.


Feels Like: 110 °F
Forecast: 90 / 106 °F
Wind: No wind

Location: Lahore Airport

Current Time: Jul 3, 2015 at 12:05:13 PM

Latest Report: Jul 3, 2015 at 11:25 AM


Visibility: 4 mi

Pressure: 29.59 "Hg

Humidity: 50%

Dew point: 75 °F

Location of MuktsarLocation

Historic Weather in Muktsar — Graph

°F

Muktsar temperature yesterday

Maximum temperature yesterday: 99 °F (at 2:25 PM)
Minimum temperature yesterday: 82 °F (at 5:25 AM)
Average temperature yesterday: 90 °F

Past Weeks' High & Low Weather Summary

 TemperatureHumidityPressure
High109 °F (Jun 18, 2:25 PM)100% (Jun 23, 11:55 AM)29.74 "Hg (Jun 23, 11:55 AM)
Low73 °F (Jun 25, 5:30 AM)23% (Jun 18, 2:25 PM)29.36 "Hg (Jun 22, 5:25 PM)
Average90 °F55%29.51 "Hg
* Reported Jun 18 10:55 AM — Jul 3 10:55 AM, Muktsar, Weather by CustomWeather, © 2015

Note: Actual official high and low records may vary slightly from our data, if they occured in-between our weather recording intervals... More about our weather records

Advertising

Muktsar weather history for previous 24 hours

 ConditionsComfort  
Time TempWeatherWind HumidityBarometerVisibility
10:55 AM
Fri, Jul 3
95 °FPassing clouds.5 mph53%29.59 "Hg4 mi
10:25 AM95 °FPassing clouds.No wind53%29.59 "Hg4 mi
9:25 AM91 °FScattered clouds.No wind59%29.59 "Hg4 mi
8:55 AM90 °FScattered clouds.5 mph59%29.59 "Hg3 mi
8:25 AM86 °FClear.No wind70%29.59 "Hg3 mi
7:55 AM82 °FScattered clouds.3 mph79%29.59 "Hg2 mi
7:25 AM82 °FScattered clouds.No wind79%29.59 "Hg2 mi
6:55 AM82 °FScattered clouds.5 mph74%29.59 "Hg2 mi
6:25 AM82 °FScattered clouds.No wind79%29.56 "Hg2 mi
5:55 AM81 °FScattered clouds.3 mph79%29.56 "Hg2 mi
5:25 AM81 °FThundershowers. Passing clouds.6 mph79%29.56 "Hg2 mi
4:55 AM81 °FThunderstorms. Partly cloudy.6 mph79%29.59 "Hg2 mi
4:25 AM81 °FThunderstorms. Partly cloudy.6 mph79%29.59 "Hg2 mi
3:55 AM82 °FThunderstorms. Partly cloudy.10 mph74%29.59 "Hg2 mi
3:25 AM84 °FThundershowers. Passing clouds.No wind70%29.56 "Hg2 mi
2:55 AM84 °FPassing clouds.3 mph70%29.56 "Hg2 mi
2:25 AM84 °FPassing clouds.3 mph70%29.59 "Hg2 mi
1:55 AM84 °FPassing clouds.No wind70%29.59 "Hg2 mi
1:25 AM86 °FPassing clouds.No wind66%29.59 "Hg2 mi
12:55 AM86 °FPassing clouds.No wind70%29.59 "Hg2 mi
12:25 AM86 °FPassing clouds.No wind70%29.59 "Hg2 mi
11:55 PM
Thu, Jul 2
86 °FPassing clouds.5 mph70%29.59 "Hg2 mi
11:25 PM86 °FPassing clouds.3 mph70%29.59 "Hg2 mi
10:55 PM86 °FPassing clouds.3 mph70%29.59 "Hg2 mi
10:25 PM86 °FPassing clouds.No wind70%29.59 "Hg2 mi
9:55 PM88 °FPassing clouds.No wind66%29.59 "Hg2 mi
9:25 PM88 °FPassing clouds.3 mph66%29.59 "Hg2 mi
8:55 PM90 °FPassing clouds.7 mph59%29.59 "Hg2 mi
8:25 PM90 °FPassing clouds.7 mph59%29.56 "Hg2 mi
7:55 PM91 °FPassing clouds.7 mph59%29.56 "Hg2 mi
7:25 PM91 °FScattered clouds.5 mph59%29.56 "Hg2 mi
6:55 PM91 °FScattered clouds.5 mph59%29.56 "Hg2 mi
6:25 PM91 °FScattered clouds.No wind59%29.56 "Hg2 mi
5:55 PM90 °FScattered clouds.5 mph67%29.56 "Hg2 mi
5:25 PM86 °FScattered clouds.5 mph79%29.56 "Hg2 mi
4:55 PM86 °FThunderstorms. Broken clouds.18 mph79%29.59 "Hg1 mi
4:25 PM93 °FThunderstorms. Broken clouds.7 mph63%29.59 "Hg2 mi
4:00 PM93 °FThunderstorms. Broken clouds.15 mph53%29.59 "Hg2 mi
3:30 PM97 °FBroken clouds.21 mph47%29.59 "Hg1 mi
2:55 PM99 °FScattered clouds.5 mph44%29.59 "Hg2 mi
2:25 PM99 °FScattered clouds.6 mph44%29.62 "Hg3 mi
1:55 PM97 °FScattered clouds.7 mph44%29.62 "Hg3 mi
1:30 PM97 °FScattered clouds.6 mph44%29.65 "Hg3 mi
12:55 PM97 °FScattered clouds.5 mph47%29.65 "Hg3 mi
12:25 PM97 °FScattered clouds.6 mph47%29.65 "Hg3 mi
Weather by CustomWeather, © 2015

See weather overviewHow to use our weather pages